Location: Kalisz
(51.7636°N, 18.0893°E)
Time: 20:40:43
(UTC+02:00)

ISS - Pass Details

Date: 28 March 2019
Orbit: 408 x 410 km, 51.6° (Epoch: 26 April)

Event Time Altitude Azimuth Distance (km) Brightness Sun altitude
Rises 19:18:04 0° 258° (WSW) 2,336 1.2 -10.5°
Reaches altitude 10° 19:20:09 10° 258° (WSW) 1,475 0.0 -10.8°
Maximum altitude 19:23:27 82° 171° (S) 419 -3.9 -11.3°
Enters shadow 19:25:52 17° 84° (E) 1,117 -2.1 -11.6°
